Theta_e
290 288 285 288 291 291 289 287 287 286 284 284 286 287 290 290 287 289 291 290 290 290 292 291 291 291 290 289 289 288 288 288 288 288 288 288 288 288 288 289 289 289 289 289
286 284 289 287 288 287 286 286 286 284 282 282 284 283 288 289 288 289 289 290 290 290 290 289 290 290 289 288 288 288 288 287 288 289 289 289 288 288 288 288 288 288 288 288
284 283 283 284 284 283 285 284 285 283 282 282 281 284 287 287 288 289 290 292 292 291 288 289 288 288 289 288 288 287 287 287 288 288 287 287 287 287 287 287 287 287 288 288
284 282 281 282 282 284 282 285 284 282 282 280 281 279 286 286 284 283 286 289 291 290 290 290 288 288 288 288 288 288 287 287 287 287 287 286 286 286 287 287 287 287 287 287
281 279 280 280 281 283 282 281 282 281 281 279 279 278 284 281 282 284 284 286 289 291 290 289 288 288 289 289 288 288 287 287 287 287 288 287 287 288 287 287 286 287 287 287
278 279 280 281 279 280 282 281 280 280 279 276 280 278 282 285 284 288 288 287 287 290 291 291 290 290 288 289 288 287 286 286 287 287 287 287 287 286 286 286 286 286 286 286
277 278 278 280 279 280 280 280 277 275 274 274 275 275 282 287 286 286 288 288 288 289 290 290 289 287 288 286 287 286 286 285 286 286 286 287 287 287 287 286 286 286 286 286
277 276 277 279 279 279 278 280 279 274 274 277 274 273 282 286 286 285 286 286 288 287 288 289 289 288 287 286 286 286 286 285 285 286 286 286 287 287 288 287 287 287 287 286
277 275 276 276 278 279 278 276 280 276 268 273 279 281 284 286 285 285 284 283 285 286 287 288 288 288 288 287 286 286 285 286 285 285 286 286 286 286 287 287 287 287 287 286
280 276 274 275 277 277 277 278 276 277 273 273 277 276 281 285 286 287 284 284 285 286 286 288 288 288 288 287 287 286 286 285 285 286 286 286 286 286 287 287 286 286 286 285
281 279 272 274 274 276 274 276 275 276 276 275 274 279 288 288 286 285 286 286 285 286 286 287 287 287 287 288 287 286 286 285 285 285 286 286 286 286 286 286 286 286 286 285
281 280 274 274 274 274 274 277 278 277 275 273 273 278 285 285 285 284 284 285 286 286 286 287 287 287 286 286 286 286 285 285 285 286 286 285 286 285 285 285 286 286 285 285
280 278 275 273 273 272 272 275 276 276 276 275 275 278 281 282 283 284 283 285 284 285 286 286 286 285 285 285 285 285 285 285 286 285 285 285 285 285 285 285 285 285 285 285
281 276 276 276 276 275 270 272 274 276 275 275 276 278 284 285 285 286 285 284 284 284 284 285 284 284 285 285 286 286 286 286 285 285 284 284 284 284 285 285 285 284 284 283
279 275 270 272 273 272 274 272 272 272 275 274 278 279 282 284 284 286 286 284 282 282 283 283 284 285 285 285 285 285 285 285 285 284 284 284 284 285 285 284 284 284 283 283
275 276 268 273 272 271 270 272 272 275 275 276 277 277 284 284 283 283 284 284 282 282 283 284 284 284 284 283 284 284 284 284 284 284 283 284 284 283 283 283 282 282 282 282
276 276 272 271 271 271 270 272 273 276 276 277 274 280 284 282 282 283 284 286 283 284 284 284 283 283 283 283 283 283 283 283 283 283 283 283 282 282 281 282 281 280 280 280
272 272 274 272 269 267 279 275 277 277 279 279 279 282 283 283 285 285 287 286 283 283 283 283 283 283 282 282 282 281 282 282 282 281 281 281 281 279 279 279 278 277 276 275
279 276 273 272 271 275 277 280 274 273 277 280 279 280 281 283 280 282 283 284 285 284 284 283 283 281 279 279 279 279 279 279 279 278 277 277 277 276 275 273 273 273 273 272
274 276 274 270 269 268 277 278 278 280 273 284 282 281 281 281 277 283 276 276 276 279 279 278 278 277 276 276 276 275 274 273 272 273 273 273 274 273 271 271 270 271 271 271
267 269 269 272 270 274 280 279 280 274 281 279 280 283 281 279 281 273 273 271 273 273 273 274 274 273 272 273 273 270 269 268 269 270 270 270 270 270 270 269 269 269 269 269
268 268 268 271 270 268 278 276 277 284 281 278 278 280 281 277 272 270 270 270 270 270 269 270 269 268 269 270 269 267 265 267 268 268 268 268 268 269 269 268 268 268 268 267
271 276 271 274 275 283 278 283 282 278 280 280 278 277 278 274 271 271 269 268 267 267 267 267 265 264 265 266 267 264 264 266 266 265 265 266 267 267 267 267 267 267 267 267
272 276 275 274 279 279 280 280 277 278 279 278 277 276 275 272 270 268 267 266 266 265 264 265 264 262 262 263 264 264 264 264 264 263 264 264 264 265 266 266 267 266 266 266
280 275 276 275 279 278 280 278 281 277 276 275 275 274 273 271 269 268 267 266 265 264 264 264 262 261 261 262 262 263 264 264 263 263 263 263 263 263 264 265 265 265 267 267
279 278 275 276 282 282 283 283 279 277 275 274 273 271 272 271 269 268 266 265 264 263 263 262 261 260 260 261 261 263 264 263 262 261 261 261 261 261 261 261 261 266 266 267
Wind_Speed
3 8 13 17 15 9 2 5 7 3 3 5 13 18 17 12 12 15 16 17 18 19 16 15 14 14 13 13 13 14 13 12 9 7 7 5 5 5 5 5 6 6 6 7
4 13 8 2 6 8 9 13 13 2 3 5 9 19 19 16 18 20 20 20 20 18 17 17 17 15 16 15 15 14 14 14 10 7 5 3 7 4 5 5 6 6 7 6
11 2 1 4 5 10 11 16 12 8 3 6 8 20 19 12 20 16 20 21 21 22 21 21 20 19 17 17 17 15 15 15 12 9 7 6 6 5 5 5 5 5 6 6
7 2 3 5 6 9 13 7 7 6 5 10 2 13 11 6 14 14 18 21 21 22 20 20 21 20 20 18 16 16 15 15 12 12 9 12 7 8 6 6 5 5 6 6
3 4 5 6 4 6 2 1 5 4 9 6 9 10 7 1 11 19 18 22 23 23 23 23 24 22 21 18 16 16 16 15 14 12 10 9 8 5 7 7 9 7 6 6
2 1 2 1 2 0 7 4 3 2 2 9 12 12 15 14 13 13 13 22 23 23 23 22 21 20 19 17 16 16 17 16 15 14 12 12 11 10 9 9 8 7 6 6
3 3 2 2 4 2 4 6 3 5 5 9 2 10 17 12 12 11 11 13 21 21 22 22 23 21 20 20 19 16 18 17 16 15 13 12 11 11 12 12 9 9 7 6
6 5 9 6 2 2 9 3 5 8 6 5 3 12 8 10 10 11 10 7 13 20 20 22 22 21 21 21 21 19 18 17 16 15 14 12 11 7 8 10 8 7 7 7
6 3 1 1 1 3 7 9 2 2 2 5 8 10 13 14 17 11 10 9 15 19 20 22 22 21 21 20 21 21 19 17 17 16 13 12 11 10 9 10 9 7 7 6
2 3 1 2 2 1 3 1 4 3 5 9 8 7 11 8 9 12 13 16 13 16 19 20 19 20 18 19 19 19 19 19 18 17 14 12 12 12 10 10 10 9 8 9
2 2 3 1 10 10 6 5 3 3 4 6 9 8 7 12 4 10 11 11 12 14 16 17 16 16 17 18 18 19 18 18 17 16 15 14 13 12 10 10 10 10 10 10
3 1 5 6 2 3 3 5 10 6 7 6 5 14 2 6 8 8 9 9 11 13 14 14 15 17 17 18 18 19 18 17 16 16 15 14 13 12 12 11 10 10 10 9
6 5 3 3 2 1 6 8 7 4 3 15 12 9 1 3 8 7 10 7 8 11 15 15 16 16 16 18 18 18 18 17 15 15 15 14 14 13 13 12 11 10 9 7
4 3 5 10 2 4 6 8 14 10 10 16 20 28 20 17 18 16 6 6 6 10 13 14 14 15 16 16 17 18 17 16 16 15 16 15 15 14 13 12 11 10 9 8
4 6 3 4 6 4 4 6 13 19 24 17 20 28 21 16 20 21 14 5 6 10 12 15 14 15 15 16 15 15 15 16 15 15 15 14 14 13 12 11 11 10 9 8
1 8 1 9 3 9 11 14 15 22 23 27 26 37 18 15 10 12 15 11 11 15 17 16 13 14 14 15 15 13 14 14 14 14 14 12 12 12 11 11 10 10 8 8
6 4 4 11 2 6 14 21 24 19 15 18 24 32 16 18 20 22 23 18 15 15 15 18 17 14 12 13 11 13 12 12 12 12 12 12 12 11 10 10 10 10 10 10
8 5 4 4 2 13 7 2 3 22 24 24 28 24 14 16 18 17 15 15 13 13 12 13 13 14 12 11 11 11 11 12 12 11 11 11 11 11 11 11 11 11 10 10
11 8 4 6 10 15 20 10 9 11 20 22 28 26 22 20 7 27 12 13 12 9 9 11 12 14 14 13 13 13 12 12 12 12 11 11 12 12 12 12 11 10 11 10
7 6 8 4 7 12 3 2 4 6 17 13 20 23 17 7 10 12 4 4 7 8 9 13 14 15 15 13 13 15 13 13 12 12 12 12 11 14 13 12 11 10 11 11
7 5 16 17 11 12 8 4 5 7 6 2 4 8 7 10 5 5 6 9 10 10 13 14 14 14 13 13 14 16 15 14 13 12 13 13 13 14 13 13 11 10 11 10
13 14 9 9 8 20 11 6 11 3 2 1 2 3 5 4 6 6 8 10 11 14 14 14 15 14 12 12 14 16 16 12 12 14 14 13 13 11 10 13 11 10 10 10
8 10 11 14 13 4 10 10 7 2 4 2 3 2 5 8 6 8 9 11 11 13 12 13 15 16 12 11 12 18 14 12 13 15 14 13 13 11 11 11 11 9 8 7
7 5 7 4 15 17 13 7 5 7 7 1 2 4 8 9 12 13 12 11 11 12 14 13 17 16 15 13 14 14 13 12 14 15 13 11 11 11 10 8 8 8 7 6
7 11 10 9 18 9 15 14 13 10 6 5 6 6 10 15 14 14 14 13 12 13 14 13 15 15 16 14 14 13 12 12 14 13 12 11 10 11 10 9 7 7 7 6
11 17 11 14 17 12 19 6 12 14 13 10 10 10 10 13 17 17 15 13 14 14 15 15 17 16 15 15 14 13 11 12 13 12 10 9 8 8 7 6 6 12 11 10
Wind_Direction
165 207 217 216 220 260 261 234 244 190 160 230 241 256 255 214 215 224 217 210 210 210 197 188 188 182 178 176 172 173 164 162 161 161 150 149 128 119 104 90 80 73 65 61
170 233 226 50 209 225 243 251 248 253 174 218 269 266 264 237 227 218 213 211 210 204 196 191 187 186 187 181 180 179 176 171 176 172 163 147 141 117 109 109 92 79 78 73
223 105 159 187 190 210 233 238 246 256 192 237 287 273 253 231 232 221 219 214 209 203 196 192 190 191 187 188 185 184 179 179 180 167 145 133 125 137 145 139 123 103 103 99
243 136 165 178 220 212 248 227 223 209 230 263 254 286 255 233 231 220 221 214 207 201 201 194 190 192 191 191 186 185 181 182 182 175 173 172 171 163 156 149 138 131 123 112
155 178 182 199 199 188 249 175 190 209 240 289 212 266 248 130 250 237 216 212 207 200 196 193 192 191 189 185 186 184 183 185 184 186 187 182 175 151 150 149 149 148 138 131
69 13 262 64 110 78 140 118 91 101 230 252 234 227 266 230 226 240 227 213 206 200 196 195 191 185 185 184 185 184 184 188 189 192 194 192 179 164 162 165 166 167 159 149
161 197 148 222 138 122 208 170 196 222 207 256 117 228 255 300 256 238 247 219 208 198 192 191 185 183 183 184 184 183 185 189 191 194 197 198 192 180 178 173 176 167 168 168
200 229 182 157 275 193 188 233 213 252 224 284 144 239 254 249 292 268 255 261 208 196 192 190 185 183 183 184 183 182 184 189 190 193 198 197 197 192 190 186 179 180 178 173
177 230 95 35 16 278 170 215 52 43 120 267 230 256 270 258 267 254 252 228 213 203 193 187 183 186 183 182 184 183 183 188 188 192 194 194 195 194 194 190 185 178 171 161
188 245 26 113 220 116 277 69 161 195 244 248 241 261 248 283 251 242 234 230 220 197 190 186 184 184 183 184 182 185 185 186 185 187 190 192 195 198 198 189 187 183 174 167
143 221 96 187 206 185 169 201 211 298 233 261 282 261 222 244 336 291 283 241 219 206 193 186 181 182 181 181 181 186 187 185 186 187 187 188 190 192 192 193 190 186 178 174
177 185 204 205 64 351 331 225 188 222 212 244 289 260 225 269 281 282 285 245 211 196 191 184 179 181 184 185 184 189 188 188 187 185 186 189 188 185 188 191 189 185 185 181
175 222 230 218 178 58 224 202 230 302 326 243 251 251 13 295 302 291 296 295 223 191 180 185 185 186 186 188 189 191 190 188 183 180 184 187 188 187 191 189 186 183 179 177
171 192 242 242 66 104 199 211 212 210 242 253 239 266 262 283 305 306 315 284 248 208 192 187 188 190 190 190 190 190 188 185 179 181 186 187 189 189 189 184 182 180 180 174
196 242 190 252 260 229 238 210 204 210 230 239 262 260 264 260 264 274 301 260 208 217 211 202 194 192 191 189 187 186 185 182 180 183 186 189 187 187 182 178 176 173 176 177
134 250 125 263 243 241 259 232 224 225 233 250 260 268 260 272 272 274 266 268 217 213 208 207 197 189 190 186 184 178 178 179 176 183 187 183 179 175 176 172 168 165 159 147
179 203 199 267 239 293 265 229 220 233 219 232 244 252 266 249 249 245 254 249 236 219 211 196 194 186 176 174 167 174 166 158 171 175 176 171 167 165 164 158 152 147 139 128
161 171 186 263 244 249 254 5 228 228 246 227 252 258 254 257 259 265 248 246 235 221 203 192 175 165 149 140 138 133 143 150 155 157 155 151 141 130 128 125 125 121 117 113
188 178 197 228 213 292 296 252 186 182 253 226 238 249 244 253 310 276 224 218 240 214 190 170 157 142 134 132 129 125 124 128 129 129 124 124 127 122 122 116 113 114 112 105
189 232 207 167 232 244 111 46 141 169 274 232 215 240 239 162 247 261 17 15 58 79 114 133 132 127 124 126 128 122 117 112 108 109 108 103 110 114 109 111 109 106 105 106
155 190 211 218 236 273 227 222 171 217 268 29 329 267 160 205 243 53 70 64 76 94 104 111 112 111 113 120 120 111 105 97 103 101 97 94 94 100 103 103 100 103 103 102
169 170 195 207 225 260 160 107 217 242 313 241 230 255 213 131 103 93 94 97 98 100 101 100 98 93 93 104 107 102 97 103 98 95 92 90 93 96 100 99 98 97 100 97
212 200 181 195 208 226 193 225 210 222 265 259 240 211 184 148 149 133 118 107 104 104 100 99 100 91 74 79 98 102 106 102 97 92 89 89 89 91 95 97 97 91 84 84
240 181 239 145 244 246 246 240 227 206 230 213 231 178 168 147 143 129 123 122 115 110 107 107 102 93 85 80 84 92 102 101 99 96 92 89 90 88 83 84 82 82 76 76
223 155 215 251 266 286 263 238 233 205 194 174 151 172 160 143 144 139 133 128 121 116 110 105 100 98 99 97 93 94 95 100 96 93 92 89 83 82 82 78 83 81 61 64
213 227 219 241 245 225 255 260 192 185 188 174 153 136 145 148 141 134 127 127 125 121 113 104 103 100 98 92 87 87 90 97 99 94 88 87 89 87 86 93 86 62 55 51